GEFSSGP_500_meanwind_084.txt.gz
Wind_Speed
5 5 5 4 3 2 3 4 4 4 4 3 3 2 1 2 3 4 5 6 6 6 6 8 8 8 8 8 7 6 6 5 5 5 5 5 5 5 6 6 6 7 7 7 7 7 7 6 6
7 7 6 6 5 5 5 5 5 5 6 6 6 5 4 4 4 5 7 7 8 8 8 10 10 10 10 9 8 7 6 6 5 5 5 5 5 6 6 6 7 7 7 6 6 6 6 5 5
9 9 9 8 8 7 6 7 7 6 6 7 7 7 6 6 6 7 8 9 10 10 11 12 12 12 11 10 9 8 8 7 7 7 7 7 7 8 8 8 8 8 8 7 7 7 6 6 5
11 11 11 11 10 9 9 9 9 8 8 7 8 8 8 8 8 9 9 10 11 12 12 13 13 13 12 12 11 10 9 9 9 9 9 9 10 10 11 11 11 10 10 10 9 9 8 8 7
14 14 14 14 13 12 11 12 11 10 9 9 9 9 9 9 9 9 10 11 12 13 14 14 14 14 13 13 12 11 11 11 11 12 12 12 13 13 13 13 13 13 13 13 12 12 11 10 9
17 17 17 17 16 15 15 14 14 13 12 11 10 9 10 10 10 10 11 12 12 13 15 15 15 14 14 13 13 13 13 14 14 15 15 15 16 16 16 16 16 16 16 15 15 15 15 14 13
20 20 19 19 19 19 18 18 17 15 13 12 11 11 11 11 11 10 11 11 12 13 14 15 16 15 15 14 15 15 16 16 17 17 17 17 18 18 18 18 19 19 18 18 18 18 18 17 16
23 22 21 21 22 22 22 21 20 18 15 13 13 13 13 12 13 12 12 12 13 14 15 16 17 17 17 17 18 18 19 19 19 19 19 19 19 20 20 20 20 20 20 20 20 20 20 20 19
25 24 22 23 25 25 24 23 22 20 18 15 14 13 14 13 14 14 15 14 14 15 17 18 19 19 20 20 20 21 21 21 21 21 21 21 21 21 21 21 21 21 21 21 21 21 21 21 21
26 24 23 26 27 27 26 26 25 23 21 19 17 16 16 15 16 18 18 16 17 18 19 20 21 22 23 24 24 24 23 24 24 23 23 22 23 23 23 23 22 21 21 21 21 21 21 22 22
26 24 24 26 28 28 27 27 27 26 24 22 21 19 19 18 19 20 20 19 19 20 21 22 23 25 26 27 27 26 25 25 24 25 24 24 24 24 24 24 23 22 21 21 21 21 21 22 22
27 25 25 26 28 29 29 28 29 29 27 24 23 23 21 22 21 22 22 22 22 23 23 24 26 28 29 29 29 29 27 27 26 25 26 26 25 26 25 25 23 23 22 22 21 21 22 22 22
27 25 25 25 27 29 30 30 31 30 28 27 26 25 24 24 24 24 24 24 25 25 25 26 28 30 32 32 31 31 30 29 29 29 28 27 27 26 26 26 24 23 23 22 23 22 21 21 21
26 25 24 24 26 29 31 32 32 31 30 29 28 28 28 27 26 24 24 25 26 27 28 30 32 32 32 33 33 34 34 33 32 30 29 28 28 28 27 25 24 24 23 23 22 22 21 21 21
25 25 24 25 26 28 31 32 32 31 31 31 30 30 30 30 28 27 26 26 28 30 32 33 34 35 34 35 38 38 37 36 34 32 30 29 29 28 24 22 23 23 23 22 22 22 22 22 21
24 24 24 24 26 28 30 31 30 31 31 31 31 32 31 30 28 28 28 29 31 32 34 35 36 37 37 38 39 40 39 37 34 32 30 29 27 25 23 22 23 23 23 22 21 21 21 20 20
23 23 23 24 26 27 28 29 29 29 29 30 31 31 31 30 30 30 30 32 33 34 35 38 38 35 35 37 37 39 39 38 36 32 29 27 25 24 22 21 22 22 22 21 21 20 20 19 19
21 21 22 23 24 25 26 27 26 26 26 27 28 29 30 32 32 32 33 34 35 35 36 37 36 36 36 37 36 36 36 34 32 30 27 27 25 24 23 22 22 21 21 20 20 19 19 19 19
21 20 21 22 22 24 25 25 25 24 23 25 27 29 31 32 34 35 37 36 36 37 38 38 37 36 36 35 32 33 32 29 28 27 26 24 23 23 23 21 21 21 20 20 20 20 19 19 19
18 18 19 20 21 23 24 24 24 24 24 25 27 29 32 34 36 37 38 38 38 39 38 38 37 36 34 34 31 30 26 26 26 24 23 22 23 24 23 22 21 21 21 21 21 20 20 20 19
15 16 17 18 20 22 24 24 24 25 26 27 29 30 32 34 36 38 38 39 38 38 38 39 37 34 33 33 31 28 26 25 23 22 22 24 25 25 25 24 23 22 23 23 22 22 22 22 22
14 15 16 17 19 20 21 23 23 25 27 28 29 30 32 33 35 36 36 36 35 35 35 36 36 35 34 33 32 30 27 25 25 25 26 27 27 27 27 27 26 25 25 24 24 25 24 25 25
12 13 14 15 16 17 18 21 21 23 24 25 26 28 28 30 32 33 34 34 34 34 34 35 36 37 37 35 34 33 32 30 30 29 30 31 32 32 31 30 30 29 29 28 28 28 28 27 27
12 12 13 13 13 14 15 17 18 20 21 23 24 26 28 29 30 31 32 32 33 33 33 35 37 38 37 38 39 38 37 36 36 36 36 36 37 36 36 36 35 34 34 33 32 32 32 31 30
13 14 14 13 13 14 15 16 17 19 21 22 24 27 28 30 31 32 33 34 35 35 36 37 38 40 41 42 43 43 43 42 42 42 42 42 42 42 42 41 41 40 38 38 37 36 36 35 34
12 14 16 17 17 17 18 18 19 20 22 24 26 28 30 32 34 35 36 37 38 39 41 42 44 45 45 46 47 47 48 48 48 48 48 49 48 48 47 47 47 46 45 44 43 42 41 40 39
13 14 15 17 18 19 20 21 22 23 25 27 29 31 34 35 37 39 40 40 41 42 44 45 47 48 48 49 50 50 51 51 52 52 52 52 53 53 53 52 51 51 50 49 48 47 46 45 44
14 15 16 18 20 22 22 24 25 26 28 30 33 35 38 39 41 43 43 44 45 46 48 49 50 51 51 52 53 53 53 54 54 55 56 56 56 56 56 56 56 55 55 54 53 52 51 49 48
14 15 17 19 21 24 26 26 27 30 32 34 37 39 41 42 43 44 46 47 49 50 51 52 53 54 54 55 56 56 57 57 57 57 57 57 58 58 59 59 59 59 58 58 57 56 55 54 53
14 16 18 21 23 25 27 29 31 33 35 38 40 42 43 44 46 47 49 51 52 53 55 56 57 57 58 58 58 58 59 59 58 58 58 58 58 59 59 60 60 60 61 61 61 60 59 58 57

GEFSSGP_500_meanwind_090.txt.gz
Wind_Speed
1 1 1 2 3 5 5 6 6 5 5 4 4 4 4 5 5 6 6 6 6 6 7 7 7 7 8 9 10 11 11 10 9 7 6 5 4 4 3 3 2 2 2 2 1 2 2 2 2
4 4 4 4 4 5 8 8 8 8 8 7 7 6 6 6 7 7 7 8 8 8 8 9 8 9 9 10 11 12 12 11 10 9 8 7 6 6 5 5 4 4 3 3 3 2 2 2 2
7 7 6 6 7 7 8 8 9 9 9 10 9 9 9 8 8 8 8 9 9 9 10 10 10 10 11 12 12 13 13 13 12 11 10 9 9 8 8 8 7 6 6 5 5 5 5 4 4
10 9 9 9 10 11 11 11 11 11 11 11 11 12 11 10 9 9 10 10 10 10 11 11 11 11 12 13 13 14 14 14 13 12 12 11 11 11 11 10 10 9 9 8 8 7 7 7 7
13 12 12 12 14 14 14 14 14 13 13 13 13 14 13 11 11 11 11 11 11 11 11 11 11 12 13 14 14 15 15 14 14 14 14 14 14 14 14 13 12 12 12 11 10 10 10 10 10
15 15 14 14 16 17 18 17 16 15 15 15 14 15 14 13 13 13 13 12 12 12 11 12 12 13 13 14 15 16 16 16 17 17 17 17 17 17 16 16 15 14 14 14 13 13 13 13 13
17 17 18 18 19 20 21 19 18 18 17 16 15 15 15 15 14 15 14 14 14 14 13 14 14 14 15 15 16 17 18 19 19 20 20 20 19 19 19 18 18 17 16 16 16 16 16 16 16
20 19 19 20 22 23 23 22 21 19 18 17 16 16 17 16 15 15 16 16 15 15 15 16 16 16 17 17 18 19 20 21 22 22 23 23 23 22 21 21 20 19 18 18 18 18 18 18 17
21 21 21 21 24 24 24 24 22 21 19 18 17 18 18 17 17 17 17 17 17 18 18 18 19 19 20 20 21 22 22 23 24 24 25 26 26 25 24 23 22 21 20 20 19 19 19 19 19
23 22 22 24 25 24 24 24 24 22 21 20 21 21 19 19 19 19 19 19 19 19 20 20 21 21 22 23 24 25 26 26 27 28 28 28 28 27 27 26 25 24 23 21 21 20 20 20 20
24 23 23 24 25 25 24 24 24 24 23 22 22 22 22 21 21 21 21 21 22 21 22 22 22 23 24 25 26 27 28 29 30 31 30 30 29 29 29 29 28 26 25 24 22 21 20 20 20
24 23 23 23 24 25 25 25 25 26 26 25 24 24 24 24 23 23 23 23 24 24 25 25 25 25 27 28 28 30 31 32 32 33 33 33 32 32 32 31 30 28 26 25 24 23 22 21 20
25 24 23 23 24 24 24 25 26 27 26 26 26 26 25 25 26 25 25 26 26 27 28 29 29 29 30 30 30 32 34 33 34 35 35 35 35 35 34 32 31 30 28 27 25 24 24 22 22
25 24 23 23 23 24 24 25 27 27 27 27 27 27 27 28 28 28 28 28 29 29 30 31 32 33 33 33 33 34 35 35 36 36 37 37 37 36 36 35 34 32 31 29 27 26 25 24 23
23 23 23 23 23 23 23 25 26 26 26 27 28 28 28 29 29 30 30 30 31 32 33 34 35 36 36 37 37 35 35 35 36 37 37 37 38 38 38 36 36 34 32 30 29 28 26 24 24
21 20 20 22 22 22 21 23 25 25 25 26 26 27 27 28 29 30 31 32 33 34 35 36 37 38 39 40 39 36 37 37 38 38 37 37 38 39 38 37 37 34 32 30 29 28 27 25 24
17 16 17 20 20 21 20 22 24 24 24 25 25 26 26 27 28 29 31 33 34 36 37 37 37 39 39 40 39 38 38 38 38 37 37 36 36 37 39 37 37 34 32 30 28 27 26 25 23
14 14 15 16 19 19 20 21 22 22 23 23 23 24 25 26 28 29 31 33 35 37 38 39 40 40 39 39 40 39 38 37 35 35 36 35 37 36 36 35 35 33 31 29 27 26 25 25 24
13 13 13 15 16 17 18 19 20 21 21 21 22 23 25 26 28 29 32 34 35 37 38 39 40 40 41 41 40 39 38 37 36 34 33 35 34 34 34 35 35 32 30 28 27 26 25 25 24
11 10 11 14 14 15 16 17 18 19 20 21 23 24 26 27 29 30 32 33 35 36 38 39 40 41 41 39 38 37 37 37 35 32 30 30 30 30 31 31 31 29 27 26 27 26 25 25 25
9 8 10 12 13 13 14 15 17 18 20 21 23 24 26 27 28 30 31 33 35 36 38 39 38 38 37 37 37 36 36 35 33 32 31 29 27 28 31 31 29 28 27 27 27 27 27 26 26
8 10 10 11 11 12 13 13 18 18 19 20 21 23 25 26 28 30 32 33 35 36 37 37 38 38 37 37 37 38 38 36 35 34 33 31 30 31 31 31 32 31 29 29 28 29 29 28 28
9 10 10 10 10 11 12 11 19 18 19 20 21 23 24 26 28 30 32 33 34 35 36 37 38 39 40 39 40 39 39 39 38 37 35 34 33 32 32 32 33 33 32 31 31 31 31 30 30
9 10 10 10 10 11 14 14 19 20 21 22 24 25 27 28 30 32 34 36 37 38 39 40 41 41 41 42 42 42 42 42 42 41 40 39 37 36 35 34 35 35 35 34 34 34 34 33 33
9 9 9 9 10 13 18 18 19 20 22 25 26 28 29 31 32 34 36 38 40 41 42 43 43 43 43 43 43 44 44 45 45 45 44 44 43 42 42 41 40 41 41 40 40 38 38 37 37
9 9 9 9 11 14 19 19 19 22 24 26 28 29 31 33 35 36 38 40 41 43 44 44 44 44 45 45 45 45 46 46 47 47 47 48 48 48 47 47 47 47 47 47 46 44 44 43 42
9 9 9 11 12 14 17 20 20 23 25 28 29 31 33 35 37 38 40 41 42 42 43 44 45 45 45 46 47 47 48 48 48 49 50 51 52 52 52 52 52 52 53 53 52 51 50 49 48
9 10 10 12 13 14 17 22 24 26 27 30 32 34 36 37 38 39 40 41 42 43 44 45 45 45 46 47 49 50 51 52 52 52 52 52 53 55 56 55 56 56 57 57 57 57 56 55 54
10 11 12 13 14 16 18 23 25 27 30 32 34 36 37 38 39 39 40 41 42 44 45 45 46 47 49 50 51 52 53 53 54 54 53 53 53 54 56 57 58 58 59 60 61 60 60 60 59
12 13 13 15 17 18 21 26 26 29 32 33 35 36 37 38 39 40 40 41 42 43 44 46 48 49 51 52 53 53 54 54 54 54 54 54 54 55 56 58 59 60 61 62 62 62 63 63 62

GEFSSGP_500_meanwind_096.txt.gz
Wind_Speed
6 6 6 5 5 5 8 6 4 7 9 10 9 8 9 10 11 11 11 11 10 11 11 11 10 11 11 11 10 10 10 10 10 10 10 10 9 9 8 8 8 8 7 7 6 6 5 5 4
5 5 5 5 6 9 11 10 10 11 12 12 11 10 12 12 13 12 12 12 12 12 12 12 12 12 12 12 12 11 10 11 10 10 10 10 10 10 9 9 9 9 9 8 8 7 7 6 5
6 6 5 5 8 11 11 12 12 13 13 12 12 13 14 14 14 14 13 13 13 13 13 13 14 14 13 13 12 11 11 12 12 12 12 12 12 11 11 11 11 11 11 10 10 9 9 8 8
7 7 5 5 6 8 10 14 14 11 13 11 10 15 16 16 16 15 15 15 14 14 14 14 15 14 14 14 13 13 13 13 13 13 14 14 13 13 13 13 13 13 12 12 12 11 11 11 10
10 8 6 5 7 10 11 15 14 10 12 13 13 17 17 17 17 17 17 17 16 15 15 15 15 15 15 15 14 14 14 14 15 15 15 16 16 16 16 15 15 14 14 14 14 14 13 13 13
13 11 8 6 10 11 13 16 15 13 13 14 12 17 19 19 18 18 19 19 18 16 16 16 16 16 16 16 16 15 16 16 17 17 17 18 18 18 18 17 17 16 16 16 15 15 15 15 15
15 14 11 8 9 12 15 18 16 16 16 16 16 19 23 21 19 19 19 19 19 17 17 17 17 17 17 18 17 17 18 18 19 19 20 20 20 20 20 19 19 19 18 18 17 17 17 17 17
18 16 13 9 8 11 14 17 17 18 18 18 19 21 25 22 20 20 20 20 21 20 18 19 19 18 18 19 19 19 20 20 21 22 22 22 22 22 23 22 21 21 20 20 20 19 19 19 19
19 18 15 11 11 14 17 20 20 20 18 20 22 22 24 24 21 21 21 22 22 23 21 21 20 20 21 21 21 22 22 22 24 25 25 25 25 25 26 25 24 24 23 22 22 21 21 21 21
21 20 16 15 16 18 21 23 23 20 19 22 25 23 23 25 23 23 23 23 23 24 24 23 22 22 23 23 22 23 24 25 26 26 27 28 28 28 29 27 27 26 25 24 24 23 23 23 23
22 21 19 18 19 21 22 23 22 21 21 24 27 28 25 27 26 25 25 25 25 25 25 25 25 25 26 26 25 26 26 27 29 29 29 30 31 31 31 29 28 29 28 27 26 26 25 25 24
23 22 21 20 20 22 23 23 24 24 24 26 29 31 29 28 28 28 28 27 27 26 27 28 28 28 29 30 29 29 30 31 31 32 33 34 33 33 33 32 30 30 30 29 28 27 28 27 27
22 21 21 21 21 22 22 22 23 25 26 28 29 29 28 27 28 29 29 29 29 28 29 30 31 31 32 33 33 32 33 34 35 36 36 36 36 35 33 33 33 32 31 31 30 29 28 27 27
20 19 19 19 19 20 20 20 23 25 25 26 26 26 27 27 28 29 31 31 30 30 31 33 32 33 34 36 36 36 36 37 38 38 39 39 38 36 35 35 35 35 34 33 33 31 29 28 28
16 15 14 15 17 18 18 18 22 24 24 25 25 25 26 27 27 29 31 31 32 32 33 35 34 35 36 37 38 38 39 39 40 41 41 40 40 39 37 36 36 37 37 36 34 32 32 30 29
9 9 9 11 14 16 16 18 23 25 24 24 24 25 25 25 27 28 30 31 32 33 34 35 36 37 38 39 39 40 40 40 41 42 41 40 40 40 39 37 36 37 37 36 34 33 32 32 30
6 9 10 12 15 15 16 19 25 26 26 24 24 24 24 24 25 27 28 29 31 32 34 36 38 39 40 40 41 42 42 42 43 42 41 42 42 41 39 39 37 36 36 36 34 33 33 32 31
9 10 11 13 16 17 17 21 24 26 25 24 23 23 23 23 24 25 27 29 30 32 34 37 39 40 41 41 42 42 43 43 44 43 42 44 43 42 41 39 38 37 36 35 34 34 33 32 33
13 12 10 13 17 19 19 22 24 24 23 21 21 21 22 23 24 25 27 29 31 33 34 36 38 39 41 42 42 43 44 44 44 43 43 43 41 40 38 37 36 36 35 35 35 35 34 33 33
10 9 11 15 17 19 18 22 23 21 19 17 18 20 22 23 24 25 26 28 30 32 33 35 37 38 40 41 42 43 44 44 44 43 42 41 40 38 37 34 33 34 34 33 35 36 36 34 33
8 12 15 15 17 18 20 23 24 22 17 14 17 20 23 25 26 27 28 29 30 32 33 35 37 38 40 41 42 43 43 43 44 43 41 40 39 37 35 33 31 31 32 33 34 34 35 35 34
12 13 14 14 16 17 22 29 29 24 16 13 18 21 24 26 27 28 29 30 31 33 35 36 37 39 40 41 42 43 42 42 43 43 42 41 39 38 36 34 33 31 31 33 34 34 34 34 33
12 11 13 15 17 19 24 28 26 17 18 20 22 24 26 28 30 31 32 33 34 36 37 38 39 39 40 41 42 42 42 42 42 41 40 40 40 40 37 36 35 34 33 32 33 34 34 34 34
10 10 12 16 18 22 23 25 23 15 20 22 25 28 30 31 33 34 35 36 36 37 37 38 39 40 41 41 42 42 41 41 41 42 41 41 40 40 39 38 38 37 36 35 34 34 36 37 37
9 11 13 17 18 21 16 15 15 19 23 26 28 31 33 35 36 36 37 37 36 37 38 38 39 40 40 41 41 41 42 42 42 42 42 42 41 41 41 39 38 39 38 38 37 36 37 38 38
9 11 13 17 18 19 16 17 18 21 25 28 31 33 35 36 37 37 38 38 38 38 38 38 39 39 39 40 41 42 43 44 43 43 44 44 43 43 44 43 41 41 40 40 39 38 39 39 39
9 9 10 12 12 16 21 23 23 25 28 30 32 35 36 37 37 38 38 38 38 38 38 39 39 39 39 40 41 43 44 44 44 44 45 45 46 46 46 46 45 45 44 43 43 43 43 43 43
10 10 10 10 10 11 18 24 25 28 29 31 34 36 36 37 37 37 37 38 38 38 38 39 40 40 41 41 42 43 43 44 45 46 47 48 48 49 49 49 48 47 47 47 48 47 46 47 48
10 11 11 11 12 12 15 24 26 29 31 33 35 36 37 37 37 37 38 38 38 39 39 40 41 41 41 42 43 43 44 45 46 47 48 49 49 50 50 50 50 50 50 50 50 50 50 51 51
11 12 12 13 13 13 13 23 28 31 33 35 36 37 37 37 37 38 38 38 38 39 40 40 41 41 42 43 43 44 46 47 47 48 49 50 50 50 51 51 51 51 51 52 53 53 54 54 54

GEFSSGP_500_meanwind_102.txt.gz
Wind_Speed
4 5 5 4 5 4 5 6 5 6 6 6 5 5 4 6 7 8 9 9 8 8 9 9 9 9 9 9 9 8 8 7 7 7 7 7 8 8 8 9 10 10 10 9 9 9 8 8 7
4 4 4 4 5 5 5 8 8 8 8 9 9 9 8 7 8 9 9 9 9 9 9 9 10 9 9 9 9 9 8 7 7 7 8 8 8 8 9 9 10 11 10 10 9 9 9 8 8
6 5 4 3 4 5 7 8 9 9 10 12 13 13 13 10 10 10 11 10 11 10 10 9 9 10 10 9 10 9 9 8 8 8 8 9 9 10 10 10 11 11 11 11 11 10 10 9 9
9 7 5 5 5 5 6 8 9 9 12 13 15 16 15 13 12 12 12 12 12 11 10 10 10 10 11 11 10 10 10 10 9 9 10 10 10 10 11 11 11 12 12 12 12 12 12 11 10
11 9 7 6 7 6 6 7 9 12 14 15 17 18 17 14 13 14 13 13 12 12 11 11 11 11 11 12 11 11 11 11 11 10 10 11 11 11 12 12 13 12 12 13 13 13 13 12 11
14 11 8 7 7 6 6 8 10 13 15 17 20 21 19 16 15 15 15 13 13 13 13 12 12 12 12 12 12 12 12 12 12 12 12 12 13 13 13 13 14 14 14 14 14 14 14 14 13
16 13 10 8 8 6 4 7 11 16 18 20 22 23 21 20 19 17 15 14 14 14 14 13 13 13 13 13 13 13 13 13 13 14 14 14 15 15 15 16 16 15 15 15 15 15 16 16 15
19 16 13 12 11 11 10 10 12 16 20 23 23 24 23 24 22 20 17 16 16 17 16 15 14 14 14 14 14 14 14 15 15 15 16 16 16 16 17 18 18 17 17 17 17 18 17 18 17
21 19 15 15 15 14 14 14 14 18 21 23 25 26 26 26 25 24 20 18 19 20 17 16 16 16 16 15 16 16 16 17 17 17 17 17 17 18 19 19 20 20 19 19 19 20 20 20 20
23 21 17 18 18 17 17 18 18 19 22 24 26 28 28 28 28 26 24 22 22 21 19 18 18 18 18 18 18 18 18 18 19 19 19 19 20 20 21 21 22 22 22 21 21 22 22 22 21
25 22 20 20 20 20 19 19 20 22 25 26 27 28 28 29 29 27 26 24 23 23 21 20 20 20 20 20 20 20 20 20 21 21 21 22 22 23 23 23 23 24 23 24 23 22 22 23 23
25 23 21 21 20 21 20 20 20 22 24 26 27 28 29 30 29 28 28 26 25 24 25 24 23 21 22 22 22 23 24 24 24 24 25 25 25 25 25 26 25 25 25 24 25 25 24 24 24
24 22 21 20 20 21 21 20 21 23 24 26 27 28 29 29 28 28 28 26 25 26 26 26 25 24 25 25 25 25 26 27 27 28 28 29 28 28 27 26 26 25 26 25 26 26 26 26 26
20 19 18 17 17 17 18 19 21 23 24 24 25 26 27 28 29 27 27 26 25 26 27 27 26 27 27 27 26 27 28 29 30 30 30 30 29 28 29 29 28 27 26 26 26 27 28 29 29
16 14 12 12 13 15 17 20 22 23 24 25 25 26 27 27 27 27 26 26 25 26 26 27 27 29 29 29 28 28 29 31 32 32 31 30 29 29 31 30 29 27 27 27 27 28 29 29 29
8 7 7 8 10 13 17 20 22 24 23 24 24 25 24 24 25 25 25 25 25 26 27 28 29 29 30 31 32 32 32 32 33 34 34 33 33 33 32 31 30 29 28 27 27 29 29 28 29
4 5 6 7 9 13 17 20 22 23 23 24 25 25 25 25 25 24 24 25 26 26 27 29 30 31 32 33 35 35 35 35 36 36 35 35 36 36 35 34 32 32 30 29 29 29 29 30 30
5 5 5 7 10 14 16 20 23 23 24 24 25 24 24 24 23 23 24 25 26 27 28 30 31 32 34 35 36 36 37 37 38 38 38 38 38 37 36 35 34 33 32 31 29 29 29 30 30
5 6 7 9 13 17 19 22 23 25 25 22 22 24 22 20 20 21 22 23 25 26 28 30 32 33 34 35 36 37 37 38 38 38 39 39 38 38 37 36 35 34 33 31 30 29 28 29 29
7 9 9 10 13 17 19 21 22 25 26 24 21 19 19 18 18 19 21 22 25 26 28 30 32 34 36 37 37 37 38 39 39 39 40 40 39 38 38 37 36 34 33 31 30 30 29 29 29
7 8 10 13 15 17 20 23 25 25 25 23 19 16 16 17 18 20 22 24 26 28 30 32 34 35 36 37 37 38 38 39 39 39 40 40 40 39 38 37 36 35 34 32 31 31 30 29 31
7 8 9 13 16 18 20 21 22 23 23 20 15 14 15 17 19 21 23 26 27 29 31 32 34 35 35 36 37 37 38 39 39 40 40 40 39 39 38 37 36 35 34 33 32 32 30 31 32
6 8 9 11 12 14 15 17 18 20 18 14 12 13 15 16 19 22 25 26 28 29 30 31 33 34 34 35 36 37 38 39 39 39 39 39 39 39 38 38 37 36 35 34 33 33 32 31 31
7 9 9 10 10 11 13 15 16 14 14 13 14 16 17 18 20 22 24 26 27 28 29 30 31 32 33 34 34 35 36 37 38 38 38 38 39 39 39 39 38 37 36 35 35 34 33 33 32
6 8 8 9 9 10 13 14 13 14 15 15 16 18 20 21 23 24 25 26 27 27 28 29 30 31 32 33 34 35 35 36 37 38 39 39 40 40 40 40 40 39 39 38 36 36 35 35 34
7 8 8 10 10 11 12 13 14 16 17 18 20 22 24 26 26 27 27 28 28 28 29 30 31 32 32 33 34 35 36 36 37 38 39 39 40 41 41 41 41 41 41 40 39 38 37 37 36
8 8 9 10 10 11 11 13 15 18 20 22 24 26 28 29 29 30 30 30 31 31 32 32 33 33 33 34 35 36 37 37 39 40 40 40 40 41 41 41 41 42 42 42 41 40 39 38 38
8 9 9 8 10 11 13 15 17 20 22 25 27 29 30 31 31 32 32 32 33 34 34 34 34 34 34 35 36 37 38 39 40 41 41 42 41 41 42 42 42 42 42 43 43 41 41 40 40
8 8 9 10 12 13 15 17 20 22 25 27 29 30 31 32 32 33 33 33 34 35 36 36 36 36 37 37 38 38 39 40 41 41 41 42 42 42 43 43 42 42 42 43 44 44 44 43 43
8 8 10 12 13 15 17 19 22 23 26 28 30 31 33 33 33 34 34 35 35 36 37 37 37 37 38 38 39 39 40 41 41 41 41 41 41 41 41 42 42 43 44 45 45 45 46 46 46

GEFSSGP_500_meanwind_108.txt.gz
Wind_Speed
5 5 5 5 4 5 5 5 5 5 5 5 6 8 9 10 10 11 11 10 9 9 8 7 7 7 7 7 7 6 5 5 4 4 4 3 3 4 4 5 5 6 6 6 6 7 7 7 6
7 6 7 7 6 7 6 6 5 5 5 5 6 8 9 10 11 11 12 11 10 9 8 7 7 7 7 7 7 7 6 6 5 5 5 4 4 4 4 4 5 5 6 6 6 6 6 5 5
9 9 9 9 9 8 7 7 8 7 6 5 6 8 10 11 13 12 12 12 11 10 10 9 8 8 7 7 8 7 7 6 6 6 6 6 6 5 6 6 6 6 6 6 6 6 6 5 4
12 12 12 12 11 10 10 10 10 10 8 7 7 8 10 12 13 13 13 13 13 12 12 10 9 9 8 8 8 8 7 8 8 8 8 8 8 7 7 8 7 7 7 7 7 6 6 6 5
15 14 14 14 13 12 12 12 11 12 11 9 9 9 12 14 14 13 14 14 14 14 13 12 11 10 10 10 9 9 9 9 10 10 10 10 10 10 9 10 10 10 10 9 9 8 8 7 6
18 17 16 15 14 14 14 15 14 13 12 11 10 12 13 15 14 14 15 15 15 15 15 14 13 12 12 11 11 11 11 11 11 11 11 11 11 11 11 12 12 12 12 11 11 10 10 10 9
20 19 17 16 16 17 17 16 15 14 14 13 12 12 13 15 15 15 16 16 16 16 16 15 15 14 13 13 13 13 13 13 13 13 13 13 13 13 13 13 14 14 14 13 13 13 13 12 12
22 21 19 18 18 20 20 19 17 16 15 14 14 13 14 15 17 18 18 18 18 17 17 16 15 15 15 15 16 16 15 16 15 15 15 15 15 15 15 15 15 16 16 16 16 16 16 16 15
24 22 20 20 20 22 23 22 20 19 17 16 15 14 15 16 18 18 19 19 19 19 18 18 17 17 17 18 18 18 18 19 18 18 17 17 16 17 17 18 18 18 19 19 19 19 19 19 18
25 23 21 22 22 23 24 24 23 21 19 19 17 16 16 17 18 19 20 21 22 21 20 19 19 19 20 20 20 20 20 21 21 20 20 19 19 19 19 20 20 21 21 21 21 21 22 21 21
25 23 22 22 24 24 25 26 25 24 22 21 20 19 17 17 18 20 21 22 22 22 21 21 20 21 22 22 22 23 22 22 22 22 22 21 21 21 21 21 22 22 22 22 23 24 24 24 23
24 22 22 22 24 24 25 26 26 25 24 24 23 22 21 21 21 22 21 21 21 21 22 22 23 23 24 24 25 24 24 24 25 25 24 24 23 23 24 23 24 24 25 24 24 25 25 26 26
21 20 21 22 23 24 24 25 26 25 25 25 24 24 24 23 23 23 21 21 21 21 22 23 22 22 22 24 25 26 27 26 27 27 27 27 26 26 27 27 27 27 27 25 24 25 25 25 26
18 17 18 20 22 23 24 24 25 25 26 26 26 25 25 25 25 24 23 22 23 23 23 23 23 23 24 25 25 25 27 28 27 27 28 29 29 29 28 29 28 27 25 25 25 25 25 25 27
14 14 16 19 20 21 23 23 23 24 25 25 25 25 25 26 26 25 24 24 25 24 24 23 24 25 26 25 25 26 26 25 26 27 28 29 29 29 28 29 29 28 27 26 26 26 26 26 28
12 12 14 16 17 18 20 20 20 21 22 23 23 24 25 27 25 25 25 25 25 24 24 24 25 26 27 27 27 28 29 28 28 28 28 29 29 30 29 30 30 29 28 28 27 26 27 28 28
10 11 12 13 14 15 17 17 17 19 20 21 22 24 26 26 26 26 26 26 25 25 25 26 27 28 28 28 29 30 30 30 30 30 30 30 29 28 29 30 30 30 29 28 28 28 28 28 29
10 11 12 13 13 13 14 16 16 17 19 20 22 23 24 25 25 24 25 25 25 25 25 26 27 28 29 29 30 30 31 31 32 32 31 31 31 30 31 31 31 31 30 30 30 30 30 29 29
11 12 12 12 11 12 13 15 16 18 19 20 21 22 23 23 24 23 22 23 24 25 26 27 28 29 30 31 31 32 32 32 33 33 33 33 33 34 33 33 32 33 32 32 32 32 32 31 31
10 11 11 12 12 13 13 14 15 17 18 19 21 21 22 24 24 22 22 23 24 26 28 29 31 32 32 33 33 33 33 34 34 34 35 35 35 35 35 35 34 34 34 34 34 34 34 33 33
10 11 12 12 13 13 13 14 16 17 17 18 19 19 20 21 22 22 22 24 25 26 28 29 31 32 33 34 34 34 34 35 35 35 35 35 35 35 36 36 36 36 36 36 36 36 35 34 34
10 11 11 11 11 12 12 13 13 14 14 15 15 17 18 19 20 20 22 24 25 27 28 29 30 31 32 33 34 34 35 35 36 36 36 36 36 36 36 36 36 37 37 37 37 37 36 35 35
10 10 10 11 11 10 10 11 11 12 13 14 14 15 16 17 17 19 21 22 24 25 27 29 30 31 32 33 34 34 34 35 36 36 36 36 36 36 36 36 36 36 37 37 37 37 37 36 36
10 10 9 10 11 10 10 11 11 12 12 12 14 15 16 16 17 19 20 21 23 25 26 27 29 30 31 32 32 33 33 34 34 35 36 36 37 37 36 36 37 37 37 38 38 38 38 38 37
8 9 9 9 9 9 9 10 10 10 11 12 14 15 16 16 17 18 19 21 23 24 25 26 27 28 30 31 31 32 33 34 35 36 36 37 37 37 37 37 37 38 38 39 39 40 39 39 39
7 8 9 8 8 7 8 8 9 9 11 13 14 15 16 17 18 19 21 22 23 24 26 27 28 28 29 30 31 32 33 34 35 36 36 37 37 38 39 39 39 39 39 40 40 41 41 41 41
7 6 7 6 6 6 7 8 9 10 12 14 15 16 18 19 20 21 23 24 25 26 27 27 28 29 30 31 32 33 34 34 35 36 36 37 37 38 38 40 40 41 41 41 42 42 42 42 42
6 6 6 6 7 7 7 8 10 12 13 15 17 18 20 21 22 24 25 26 27 28 28 29 29 30 31 32 32 33 33 35 35 35 36 36 37 38 38 39 40 41 41 42 42 43 44 44 44
5 6 6 6 7 8 8 9 11 13 15 17 18 21 22 23 24 25 27 28 29 29 30 30 31 31 32 32 33 33 34 35 35 35 35 35 36 36 37 38 38 39 40 41 41 43 44 44 44
6 6 6 7 7 8 9 10 12 15 16 18 20 22 24 25 26 27 28 29 30 31 32 32 32 32 33 33 34 34 35 35 35 35 36 36 36 37 37 37 37 38 38 39 39 40 42 43 44